Location: Warszawa
(52.2500°N, 21.0000°E)
Time: 13:34:53
(UTC+02:00)

Vanguard 2 - Pass Details

Date: 09 February 2023
Orbit: 553 x 2927 km, 32.9° (Epoch: 27 March)

Event Time Altitude Azimuth Distance (km) Brightness Sun altitude
Rises 23:34:49 0° 259° (W) 5,618 11.9 -52.1°
Enters shadow 23:36:01 - 257° (WSW) 5,391 11.8 -52.2°
Reaches altitude 10° 23:38:46 10° 250° (WSW) 4,919 - -52.2°
Maximum altitude 23:50:52 31° 196° (SSW) 4,072 - -52.3°
Drops below altitude 10° 00:05:00 10° 144° (SE) 5,735 - -52.1°
Sets 00:10:07 0° 135° (SE) 6,654 - -52.1°
